#timestamp,LO_Frequency,Hit 
1500037215.5,286046932.8,N
1500037235.3,286046933.0,N
1500037255.1,286046933.9,N
1500037275.9,286046933.3,N
1500037295.7,286046932.1,N
1500037315.5,286046935.4,N
1500037335.4,286046935.0,N
1500037355.2,286046932.6,N
1500037375.0,286046933.2,N
1500037375.9,286046933.2,N
1500037395.8,286046932.6,N
1500037415.6,286046931.2,N
1500037435.4,286046930.0,N
1500037455.2,286046929.7,N
1500037475.1,286046931.3,N
1500037476.0,286046931.3,N
1500037495.8,286046929.7,N
1500037515.6,286046929.4,N
1500037535.5,286046930.0,N
1500037555.3,286046927.7,N
1500037575.1,286046929.3,N
1500037595.9,286046929.7,N
1500037615.7,286046932.3,N
1500037635.5,286046931.9,N
1500037655.4,286046929.5,N
1500037675.2,286046930.2,N
1500037695.0,286046929.7,N
1500037695.9,286046929.7,N
1500037715.8,286046929.8,N
1500037735.6,286046928.2,N
1500037755.4,286046931.9,N
1500037775.3,286046929.4,N
1500037795.1,286046933.4,N
1500037796.0,286046933.4,N
1500037815.8,286046932.3,N
1500037835.7,286046932.0,N
1500037855.5,286046930.1,N
1500037875.3,286046930.5,N
1500037895.1,286046930.2,N
1500037915.9,286046932.3,N
1500037935.7,286046931.7,N
1500037955.5,286046929.7,N
1500037975.4,286046930.3,N
1500037995.2,286046931.1,N
1500038015.0,286046931.3,N
1500038015.9,286046931.3,N
1500038035.8,286046930.4,N
1500038055.6,286046930.3,N
1500038075.4,286046927.7,N
1500038095.3,286046929.6,N
1500038115.1,286046933.7,N
1500038116.0,286046933.7,N
1500038135.8,286046932.9,N
1500038155.7,286046932.6,N
1500038175.5,286046934.4,N
1500038195.3,286046937.2,N
1500038215.1,286046935.5,N
1500038235.9,286046931.1,N
1500038255.7,286046932.3,N
1500038275.5,286046931.2,N
1500038295.4,286046933.5,N
1500038315.2,286046931.9,N
1500038335.0,286046927.7,N
1500038335.9,286046927.7,N
1500038355.8,286046930.1,N
1500038375.6,286046929.1,N
1500038395.4,286046927.3,N
1500038415.3,286046932.4,N
1500038435.1,286046931.7,N
1500038436.0,286046931.7,N
1500038455.8,286046929.4,N
1500038475.7,286046929.5,N
1500038495.5,286046929.4,N
1500038515.3,286046932.0,N
1500038535.2,286046930.0,N
1500038555.9,286046926.4,N
1500038575.7,286046926.6,N
1500038595.6,286046928.7,N
1500038615.4,286046932.0,N
1500038635.2,286046929.8,N
1500038655.0,286046928.1,N
1500038656.0,286046928.1,N
1500038675.8,286046926.3,N
1500038695.6,286046928.3,N
1500038715.4,286046926.6,N
1500038735.3,286046927.5,N
1500038755.1,286046926.4,N
1500038775.8,286046926.8,N
1500038795.7,286046925.5,N
1500038815.5,286046927.2,N
1500038835.3,286046930.4,N
1500038855.2,286046929.8,N
1500038875.9,286046928.8,N
1500038895.7,286046927.9,N
1500038915.6,286046931.7,N
1500038935.4,286046926.3,N
1500038955.2,286046926.0,N
1500038975.1,286046923.5,N
1500038976.0,286046923.5,N
1500038995.8,286046925.8,N
1500039015.6,286046926.4,N
1500039035.4,286046930.6,N
1500039055.3,286046932.4,N
1500039075.1,286046931.6,N
1500039095.8,286046931.4,N
1500039115.7,286046929.7,N
1500039135.5,286046931.8,N
1500039155.3,286046933.2,N
1500039175.2,286046931.9,N
1500039195.9,286046931.7,N
1500039215.7,286046932.0,N
1500039235.6,286046931.9,N
1500039255.4,286046931.8,N
1500039275.2,286046929.7,N
1500039295.1,286046929.8,N
1500039296.0,286046929.8,N
1500039315.8,286046932.4,N
1500039335.6,286046926.2,N
1500039355.5,286046927.7,N
1500039375.3,286046930.3,N
1500039395.1,286046928.1,N
1500039415.8,286046929.0,N
1500039435.7,286046926.4,N
1500039455.5,286046924.8,N
1500039475.3,286046925.3,N
1500039495.2,286046923.2,N
1500039515.0,286046923.5,N
1500039515.9,286046923.5,N
1500039535.7,286046924.4,N
1500039555.6,286046921.3,N
1500039575.4,286046922.1,N
1500039595.2,286046922.3,N
1500039615.1,286046919.8,N
1500039616.0,286046919.8,N
1500039635.8,286046920.6,N
1500039655.6,286046918.1,N
1500039675.5,286046919.0,N
1500039695.3,286046919.4,N
1500039715.1,286046920.6,N
1500039735.9,286046921.9,N
1500039755.7,286046922.2,N
1500039775.5,286046919.9,N
1500039795.3,286046919.7,N
1500039815.2,286046920.4,N
1500039835.0,286046920.8,N
1500039835.9,286046920.8,N
1500039855.7,286046918.6,N
1500039875.6,286046918.8,N
1500039895.4,286046918.3,N
1500039915.2,286046918.6,N
1500039935.1,286046919.2,N
1500039936.0,286046919.2,N
1500039955.8,286046918.7,N
1500039975.6,286046918.2,N
1500039995.5,286046916.7,N
1500040015.3,286046915.7,N
1500040035.1,286046914.9,N
1500040055.9,286046914.9,N
1500040075.7,286046917.8,N
1500040095.5,286046917.9,N
1500040115.4,286046914.9,N
1500040135.2,286046915.2,N
1500040155.0,286046913.3,N
1500040155.9,286046913.3,N
1500040175.7,286046914.2,N
1500040195.6,286046913.4,N
1500040215.4,286046913.8,N
1500040235.2,286046913.4,N
1500040255.1,286046913.5,N
1500040256.0,286046913.5,N
1500040275.8,286046915.9,N
1500040295.6,286046913.3,N
1500040315.5,286046915.6,N
1500040335.3,286046917.5,N
1500040355.1,286046917.4,N
1500040375.9,286046919.2,N
1500040395.7,286046917.5,N
1500040415.5,286046917.4,N
1500040435.4,286046915.3,N
1500040455.2,286046915.2,N
1500040475.0,286046916.9,N
1500040475.9,286046916.9,N
1500040495.8,286046918.1,N
1500040515.6,286046919.3,N
1500040535.4,286046918.4,N
1500040555.3,286046919.4,N
1500040575.1,286046921.2,N
1500040576.0,286046921.2,N
1500040595.8,286046918.2,N
1500040615.6,286046920.3,N
1500040635.5,286046922.4,N
1500040655.3,286046920.5,N
1500040675.1,286046918.2,N
1500040695.9,286046918.9,N
1500040715.7,286046918.4,N
1500040735.5,286046922.8,N
1500040755.4,286046918.2,N
1500040775.2,286046920.6,N
1500040795.0,286046920.4,N
1500040795.9,286046920.4,N
